User: anonymous   Login
Location: Seattle
(47.6064°N, 122.3308°W)
Time: 04:09:40
(UTC-08:00)
Language:

Courier 1B - Orbit

View from above orbital plane
View from above orbital plane
View from above satellite
View from above satellite

Ground track
Ground track

The orbit data is extracted from the following two-line orbital elements,

1    58U 60013A   20334.70501504 +.00000098 +00000-0 +22433-4 0  9992
2    58 028.3293 336.2675 0165021 357.4375 002.5319 13.46324286960906
Epoch (UTC): 29 November 2020 16:55:13
Eccentricity: 0.0165021
inclination: 28.3293°
perigee height: 962 km
apogee height: 1209 km
right ascension of ascending node: 336.2675°
argument of perigee: 357.4375°
revolutions per day: 13.46324286
mean anomaly at epoch: 2.5319°
orbit number at epoch: 96090

The dashed part of the orbit path shows where the satellite is in the earth's shadow,  

DLR